Snowfall_Accumulation
0.8 1.0 1.1 1.2 1.2 1.2 1.7 1.3 1.5 1.0 1.0 1.2 1.1 1.2 1.0 1.0 1.0 1.1 1.0 1.1 1.0 1.0 1.6 1.8 1.9 1.7 1.5 1.5 2.1 2.0 1.7 1.7 1.7 1.8 2.1 2.2 2.5 3.1 2.7 3.2 5.9 7.2 4.6 1.2 0.3 0.1 0.1 0.0 0.1 0.3 0.5 1.0 1.5 1.5 1.1 0.6 0.6 0.7 0.7 0.8 1.0 1.2 1.4
1.0 1.1 1.2 1.4 1.4 1.3 1.3 1.9 1.7 1.3 1.4 1.5 1.3 1.3 1.4 1.7 2.1 1.7 1.7 1.4 1.5 1.3 1.4 1.8 2.3 2.0 1.8 1.7 2.6 2.7 2.7 2.5 2.3 2.4 2.6 2.4 2.6 3.1 3.0 2.2 4.0 5.4 4.5 3.2 0.8 0.4 0.1 0.1 0.1 0.4 0.2 0.7 0.9 1.3 1.5 1.4 1.1 0.9 0.9 0.9 1.0 1.3 1.4
1.4 1.4 1.5 1.6 1.5 1.5 1.8 1.9 2.0 1.7 2.2 2.5 2.5 2.3 2.0 1.9 2.0 2.0 2.0 1.9 1.8 1.7 1.7 2.1 2.5 2.5 2.2 2.1 3.3 3.4 3.5 3.2 3.3 3.0 3.0 2.9 2.2 2.5 2.1 2.0 2.6 4.4 5.3 3.7 2.2 0.8 0.6 0.4 0.3 0.3 0.5 0.5 0.7 0.8 0.7 1.6 1.9 1.7 1.6 1.4 1.3 1.4 1.5
1.4 1.6 1.6 1.9 2.0 2.4 1.9 2.1 1.8 2.0 2.4 2.5 2.4 2.9 3.2 2.8 2.5 2.6 2.7 3.0 2.8 2.6 2.8 3.0 3.3 3.2 3.0 3.2 3.6 3.6 3.5 3.7 3.7 3.9 4.0 3.6 2.9 2.5 2.1 1.6 1.7 2.4 4.0 3.6 3.6 1.9 1.2 0.6 0.6 0.5 0.4 0.4 0.5 1.0 1.5 1.5 1.8 1.9 2.2 1.8 1.8 1.7 2.0
1.5 1.8 2.0 2.0 1.8 1.7 1.6 1.7 1.7 1.9 2.0 2.1 2.2 2.5 2.7 2.9 3.2 3.2 3.2 3.2 3.5 4.0 4.2 4.2 4.2 3.8 3.5 3.7 4.7 4.6 4.6 4.4 4.7 5.0 5.2 5.3 4.5 4.2 3.5 3.0 2.9 3.0 3.2 4.9 5.0 3.4 1.6 0.9 0.8 0.7 0.7 0.6 1.1 1.5 1.8 2.0 2.4 2.6 3.0 2.8 2.5 2.2 2.1
2.1 2.2 2.1 2.0 2.0 1.9 2.3 2.0 2.0 2.1 2.5 2.1 1.9 2.0 2.2 2.5 2.6 2.6 2.9 3.1 3.4 3.5 3.9 4.6 4.5 4.2 4.4 4.7 5.4 5.6 5.0 5.5 6.4 6.4 6.5 6.5 6.9 6.8 6.0 6.0 5.6 4.9 5.3 5.7 5.6 4.4 3.7 1.8 1.8 1.6 1.5 1.2 1.5 1.7 2.2 3.1 3.3 2.8 3.5 4.1 4.7 4.1 3.2
2.5 2.4 2.3 2.3 2.3 2.3 2.3 2.3 2.1 2.2 2.1 2.1 2.2 2.4 2.5 2.6 2.5 2.5 2.4 2.6 2.7 2.7 3.1 3.5 3.7 3.9 4.1 4.8 5.2 5.6 5.5 5.4 5.5 6.4 7.3 7.2 7.5 7.1 8.1 9.8 10.2 9.3 8.6 8.4 8.2 7.4 5.3 4.6 3.2 2.4 2.9 1.7 1.2 1.3 1.6 2.7 3.9 5.0 4.3 4.2 4.1 4.5 4.0
2.9 2.6 2.5 2.7 2.8 2.5 2.4 2.6 2.6 2.5 2.4 2.4 2.5 2.7 3.0 2.7 3.1 3.3 3.2 3.0 2.8 2.7 3.0 2.9 3.0 3.2 3.1 3.4 3.7 4.2 4.3 4.6 5.8 6.4 7.6 6.9 7.0 8.0 9.9 11.2 11.1 11.0 11.1 11.3 10.8 9.5 8.0 5.8 4.8 3.9 3.0 2.8 2.7 3.1 3.0 2.8 3.5 4.9 4.7 4.9 4.6 4.4 4.5
3.3 3.3 3.5 2.9 2.9 3.2 2.7 3.1 3.0 2.7 2.8 3.1 3.2 3.6 4.6 4.5 4.9 4.9 5.0 4.6 4.1 3.7 3.5 3.3 3.3 3.1 3.4 2.9 2.9 3.0 3.4 4.0 4.9 6.4 8.2 7.7 7.6 9.2 10.8 12.1 12.1 12.6 12.9 12.8 12.0 11.1 8.0 7.4 6.3 5.3 4.9 4.6 4.6 4.9 4.7 3.2 3.2 4.5 3.9 3.9 4.2 4.8 4.6
3.6 4.1 5.5 4.0 3.7 3.5 3.9 3.6 3.4 3.0 3.0 4.1 6.7 8.7 9.7 10.3 10.1 9.5 9.3 9.0 8.2 6.9 5.6 4.9 4.2 3.5 2.8 2.8 3.0 3.4 3.9 4.7 5.4 5.9 7.0 8.9 9.3 10.2 11.8 12.8 13.5 13.3 12.3 12.3 13.4 11.8 9.3 9.4 7.9 5.9 5.0 4.6 3.8 2.9 2.3 2.6 3.2 4.1 3.8 3.6 4.6 4.5 5.4
5.1 4.9 4.8 4.6 4.8 5.2 4.9 4.7 4.0 3.4 4.5 8.4 11.4 13.5 15.1 14.2 12.4 10.5 9.8 9.2 8.5 7.7 5.8 4.7 4.0 3.8 3.4 3.3 3.5 3.8 4.1 4.8 5.0 6.1 7.0 7.4 8.2 9.9 13.0 16.2 17.2 15.6 12.8 13.0 12.6 10.0 8.7 8.6 7.5 5.6 4.8 4.7 4.0 3.3 3.3 3.4 3.6 4.5 4.8 6.1 6.7 7.9 5.9
6.3 5.1 4.8 5.1 5.3 5.7 5.4 5.4 4.2 4.5 8.3 10.5 14.5 19.5 19.0 17.1 15.3 13.1 11.5 10.2 9.6 8.4 7.4 6.5 5.6 5.1 4.6 4.6 4.4 4.5 4.8 5.5 5.7 6.3 6.7 7.4 8.7 9.9 12.3 15.3 15.5 16.8 16.2 13.8 13.8 13.0 10.8 9.3 7.7 5.2 4.3 4.4 4.4 4.9 4.3 4.5 4.7 5.9 7.0 7.3 7.4 6.8 6.8
6.1 6.0 6.1 6.2 7.1 6.5 6.0 6.1 4.8 5.8 9.2 11.6 16.7 21.5 24.0 20.0 16.4 14.4 12.0 10.0 8.9 8.1 7.3 6.8 7.2 6.7 6.0 5.0 4.1 4.6 4.7 5.2 5.2 5.1 5.7 6.6 7.3 7.8 10.1 14.4 19.6 18.6 15.4 16.4 17.2 16.6 13.0 9.3 7.8 7.5 5.5 3.9 4.3 5.2 6.9 6.2 7.2 7.6 7.7 8.0 7.9 6.9 5.5
7.3 7.2 7.8 8.1 8.4 8.1 7.8 7.2 6.1 6.4 11.0 15.4 18.6 24.0 27.4 21.8 18.5 15.8 13.4 11.0 9.2 7.9 6.9 6.4 6.5 6.9 6.4 5.2 4.7 4.8 5.0 5.1 5.4 5.5 5.8 6.6 7.5 8.0 7.6 9.0 10.0 10.1 9.9 11.9 15.2 17.4 16.4 9.5 7.6 6.6 5.2 5.9 5.4 7.0 9.2 9.1 9.7 9.3 9.9 9.7 9.6 6.9 6.5
8.6 8.6 8.9 9.0 10.1 9.9 9.8 8.2 6.8 9.4 14.6 17.2 20.0 24.5 29.4 24.3 20.5 16.7 13.0 10.2 8.8 8.3 7.6 6.7 6.3 6.2 5.9 5.3 5.3 5.1 5.0 5.6 6.0 6.2 6.9 7.0 6.9 6.4 5.9 5.4 5.5 6.7 8.6 9.6 9.1 10.7 11.6 9.7 7.7 6.7 5.4 4.8 6.0 8.8 9.5 9.0 9.4 9.0 10.1 10.5 9.5 9.8 9.1
7.2 7.5 7.6 7.3 8.0 9.1 9.2 7.0 6.5 10.7 15.1 16.9 20.4 26.8 25.4 24.6 20.0 16.0 12.6 10.2 8.6 7.8 6.8 6.2 6.5 7.2 7.2 6.4 5.9 5.1 8.1 7.2 7.3 8.7 9.6 8.9 7.1 5.9 5.0 4.7 4.2 6.7 8.4 7.0 8.6 9.1 8.8 8.6 8.0 9.0 9.1 8.9 9.3 9.2 9.2 9.7 10.6 11.5 13.7 16.1 17.4 15.1 9.2
5.4 5.7 6.5 6.8 7.0 7.5 7.0 6.4 6.2 8.3 13.7 15.4 19.4 28.4 29.7 25.8 19.9 15.7 12.8 10.1 8.5 7.8 7.0 6.3 6.2 6.7 7.3 6.7 6.0 5.6 9.6 11.9 12.5 14.0 14.0 13.0 10.7 8.1 6.9 5.7 3.9 7.2 14.6 21.2 25.8 28.8 23.6 20.5 20.6 21.6 24.6 24.0 23.0 16.8 16.6 19.9 23.2 20.9 14.6 16.2 17.9 13.1 8.4
5.8 5.7 6.0 6.9 7.2 7.1 7.6 6.7 5.7 7.2 11.4 14.2 18.3 25.4 26.8 24.9 22.6 17.9 14.1 11.9 9.9 8.9 8.3 6.7 6.6 6.6 7.2 7.1 5.9 8.2 11.6 16.0 16.2 21.2 18.5 16.1 14.5 12.3 10.1 6.7 3.8 3.2 3.8 10.4 17.6 21.7 22.9 25.1 22.2 20.7 21.0 23.7 22.7 21.2 14.0 20.3 27.4 18.4 11.8 13.8 12.9 12.7 7.6
6.1 5.9 6.0 6.2 6.4 6.2 7.3 7.1 5.9 5.9 9.8 12.9 19.2 22.9 23.5 22.4 21.0 19.1 15.2 13.3 12.0 9.6 8.1 6.7 5.8 6.6 8.0 7.6 7.8 13.3 16.8 23.4 18.9 21.4 17.6 13.1 13.3 14.1 12.5 7.9 5.0 4.1 4.0 4.2 5.3 6.6 7.7 9.4 11.9 11.0 11.3 10.1 11.2 12.9 15.4 15.8 17.7 14.4 13.7 15.0 12.3 10.5 9.3
5.4 5.6 5.7 5.7 6.7 7.2 7.1 7.2 6.5 6.4 7.1 14.7 21.3 21.5 20.5 20.8 21.3 20.9 18.0 15.7 13.7 13.3 11.3 8.8 7.6 6.3 6.7 10.9 16.2 16.4 22.0 23.0 29.1 22.7 20.7 16.5 17.5 16.4 11.8 6.1 4.7 5.1 5.6 5.5 5.2 4.9 4.3 5.5 6.0 7.7 9.4 9.4 8.7 8.1 9.1 11.6 11.0 12.2 13.3 13.5 12.0 9.8 9.0
5.3 6.0 6.4 6.0 6.3 7.1 7.4 7.3 7.0 6.1 7.5 15.4 18.7 17.0 22.1 20.0 19.0 16.5 15.6 15.7 15.4 12.8 10.8 9.3 7.9 6.8 5.6 6.8 11.2 15.3 21.0 23.0 27.4 26.5 20.4 20.7 19.4 13.7 9.4 8.5 10.5 8.8 6.3 6.7 6.0 5.2 4.7 4.6 5.3 6.7 8.7 9.9 9.1 8.4 8.2 9.6 7.6 7.7 7.8 10.6 12.5 11.9 10.4
6.2 6.2 5.5 5.2 5.7 6.9 7.2 6.6 6.2 6.8 7.3 12.4 16.6 17.6 19.7 19.6 18.2 14.5 16.1 17.5 13.7 10.1 8.5 7.1 6.6 6.7 6.0 6.2 9.8 16.6 24.6 26.0 26.5 27.3 20.7 20.0 23.4 24.1 21.1 12.8 10.5 8.8 8.0 7.1 6.7 6.2 5.8 5.4 5.4 6.0 6.7 9.0 9.6 8.7 8.4 8.5 7.6 6.3 5.5 5.0 5.8 8.0 9.7
6.5 6.2 5.9 5.9 6.4 6.7 6.6 6.4 6.1 6.9 6.7 8.3 12.8 15.2 17.5 19.4 20.5 18.7 14.9 15.4 14.1 10.6 8.2 6.7 6.6 6.2 6.5 8.6 17.1 22.6 26.7 26.6 27.3 22.4 22.1 24.1 22.2 21.9 18.3 16.3 16.0 13.5 12.0 9.9 8.2 7.5 8.0 6.7 5.3 5.9 5.7 5.8 7.8 8.0 6.8 7.3 6.9 6.4 5.9 6.0 5.1 4.6 4.9
6.7 6.2 6.5 7.0 7.1 6.7 6.2 6.1 6.6 6.1 5.4 6.0 8.5 13.3 18.0 18.0 19.5 18.5 15.4 13.8 12.0 9.8 8.7 8.0 7.7 9.0 11.5 18.1 18.6 20.2 23.0 24.2 21.0 20.0 21.9 22.4 20.1 14.5 14.2 16.8 18.8 18.5 16.8 13.6 11.0 9.8 8.0 6.5 4.5 4.4 4.3 4.8 4.4 6.5 7.8 7.6 7.7 6.7 6.3 6.0 5.1 4.3 4.2
6.2 6.7 6.7 6.7 6.8 7.0 6.7 6.5 6.5 5.7 5.3 5.3 5.9 8.3 11.0 13.4 15.1 12.3 11.1 11.3 9.4 8.7 8.9 8.4 10.0 13.0 14.8 16.2 17.7 18.2 15.9 14.9 13.0 13.1 15.5 13.3 13.7 14.4 14.3 16.0 15.5 14.7 15.2 17.2 15.8 11.6 7.9 5.2 4.0 3.5 3.5 3.5 4.3 5.3 7.6 9.1 9.1 8.7 7.2 6.7 6.0 5.6 4.3
6.9 6.6 6.5 6.8 6.5 7.1 7.4 7.6 6.4 5.7 5.8 6.1 6.5 7.0 7.5 9.0 8.7 9.0 8.3 9.3 8.7 6.8 6.0 6.5 9.7 7.3 7.4 8.1 8.9 10.5 12.4 15.7 11.4 9.4 8.7 9.7 11.2 11.8 14.0 14.9 13.6 11.5 11.7 12.3 10.6 9.7 8.6 6.3 4.5 4.4 4.4 4.0 4.4 5.9 7.4 9.0 10.6 11.6 10.6 9.1 9.1 8.6 7.7
7.6 8.1 8.3 8.5 8.0 8.0 7.8 7.7 6.2 5.9 6.5 8.0 9.6 9.8 9.2 8.9 8.8 8.3 7.4 7.9 9.0 7.9 6.7 6.1 6.6 6.9 7.2 7.4 7.5 9.2 10.6 9.6 7.7 8.0 10.9 9.9 9.0 12.0 13.2 16.6 11.7 9.5 9.6 8.5 7.8 7.8 7.0 6.4 6.4 5.7 6.9 7.4 6.7 6.8 6.3 6.5 7.9 10.3 10.5 9.1 8.6 8.4 8.2
12.4 13.3 13.8 14.3 11.7 11.0 9.7 8.2 6.9 6.8 8.9 13.1 13.4 12.7 11.2 10.5 10.3 11.3 11.3 8.8 8.3 8.2 7.4 7.9 7.6 7.9 8.0 9.6 10.6 10.8 11.0 10.4 9.8 8.6 7.7 7.8 8.8 10.0 10.8 11.8 11.0 10.1 10.2 9.0 8.6 8.8 7.9 8.6 8.8 9.9 9.0 7.8 7.2 5.9 5.2 5.5 7.2 8.0 10.2 11.2 10.9 13.4 12.1
21.3 19.6 19.8 16.9 15.4 16.7 15.3 12.4 11.8 10.5 11.0 14.1 14.2 14.8 14.8 14.8 13.8 12.8 12.3 9.4 8.5 9.4 9.4 8.3 8.5 8.8 8.7 8.4 8.6 9.1 9.2 8.6 7.9 7.1 7.1 8.6 9.2 8.5 8.7 8.9 10.9 12.3 10.5 8.7 9.6 11.2 11.2 11.1 10.8 9.7 8.1 8.2 8.3 6.7 5.6 5.6 7.4 8.2 8.7 10.6 13.1 14.9 12.3
25.8 25.0 23.4 21.8 16.5 15.7 18.7 17.8 14.0 11.6 16.8 19.1 19.3 21.7 18.0 16.8 18.5 15.7 13.5 10.7 9.4 9.0 9.5 8.8 8.2 7.9 7.8 7.4 6.9 7.2 7.0 6.8 6.6 6.6 6.7 7.3 7.8 7.7 8.1 8.6 9.3 9.9 9.4 8.6 9.6 10.0 11.0 10.3 9.9 8.8 8.4 8.5 8.4 7.7 6.3 5.9 7.7 9.3 9.6 11.8 14.5 14.8 12.9
23.4 24.8 20.0 19.6 21.6 17.7 12.5 11.0 10.1 10.3 16.8 19.6 23.6 23.8 20.7 21.8 18.8 18.0 16.4 13.1 12.4 11.3 9.8 9.0 7.9 7.7 6.9 6.4 6.2 6.3 6.3 6.2 6.3 6.2 6.2 6.6 7.0 6.9 7.5 8.2 8.6 9.6 9.2 9.2 9.8 10.4 11.2 10.5 10.1 9.2 7.9 8.0 7.0 7.0 7.4 8.2 9.0 9.0 10.8 11.7 11.7 12.3 11.1
19.2 20.6 22.4 18.7 19.6 22.3 19.8 14.8 13.2 13.2 19.9 23.1 26.4 26.6 21.7 20.8 21.2 19.6 16.8 13.7 13.9 13.8 10.8 8.8 7.8 7.6 7.2 6.5 6.3 6.0 5.6 6.1 6.9 6.9 7.0 6.6 6.0 5.6 5.6 6.4 7.8 8.7 9.1 9.3 9.7 9.8 10.6 11.4 11.2 10.4 9.0 7.8 7.1 7.0 7.2 8.2 10.2 11.4 13.8 12.8 11.4 10.6 9.6
11.0 12.8 15.2 16.2 19.1 21.0 21.9 18.0 16.4 16.5 20.5 22.7 24.4 22.6 17.3 16.4 15.4 12.8 12.2 10.6 9.5 9.4 9.7 8.9 8.3 8.1 7.7 7.2 6.9 6.7 6.8 7.1 7.6 6.6 6.3 6.1 6.3 5.7 5.1 5.1 5.3 6.4 7.9 8.7 9.2 9.6 9.9 11.4 10.5 11.0 10.5 10.1 8.7 8.5 8.2 7.2 7.7 7.9 8.5 10.1 11.5 10.4 9.6
7.6 7.4 7.8 8.1 10.0 12.2 13.5 11.9 11.8 12.2 12.4 14.3 16.4 15.8 15.8 16.4 14.2 11.2 11.8 9.8 9.5 8.6 8.4 7.9 7.8 7.7 8.0 8.1 8.0 8.1 7.9 8.0 8.2 6.7 6.0 5.3 4.9 5.1 4.9 4.4 4.5 5.6 6.6 7.3 7.9 8.7 8.6 9.1 9.5 10.6 11.1 11.8 10.3 9.0 8.0 8.1 7.4 7.2 8.7 10.0 9.5 8.8 8.4
7.1 5.9 6.4 8.3 8.3 9.5 10.3 9.2 8.9 9.8 11.6 13.7 14.4 14.5 17.0 13.9 12.7 13.4 11.2 8.5 7.4 7.7 7.9 7.9 7.6 7.5 7.1 7.1 7.4 7.8 8.1 8.0 8.1 7.1 6.7 6.1 5.5 4.7 4.6 5.1 4.9 4.8 5.1 5.5 6.2 7.0 7.6 7.9 8.9 9.5 9.6 9.8 9.8 9.8 10.0 8.8 8.2 8.0 7.8 8.1 8.4 7.9 7.4
7.8 6.9 6.2 7.3 7.0 7.3 9.4 9.6 8.8 9.3 12.4 16.3 15.8 15.8 14.7 15.5 12.9 10.1 9.2 8.3 7.9 8.0 8.2 8.2 8.5 8.6 8.5 8.9 9.2 9.3 8.8 8.5 8.5 8.5 8.2 7.4 6.8 6.1 5.6 5.7 5.8 5.4 5.0 4.7 5.0 5.7 6.3 6.9 7.8 8.7 9.7 9.5 8.8 8.3 7.9 7.2 7.0 6.8 7.0 7.1 7.4 8.0 7.6